Content
SEND FEEDBACK

Daily
Averages
Monthly
Summary
United States of America

PETERSBURG, ALASKA


Home > North America > United States > Alaska
Elevation: 11 feet     Latitude: 56 49N     Longitude: 132 57W

WEATHER
 
SELECT A DAY
Number of Records: 434,494;   Date Range: 1/1/95 - 8/30/14
 
SHARE

PRINT THIS DATA

[ ← Previous Day ]
WEATHER ALMANAC - JANUARY 31, 2013
[ Next Day → ]
[ °C ]   °F
Weather ElementAverageHighLow
Temperature35 °F37.4 °F (2:16 pm)33.8 °F (12:36 am)
Dewpoint32.8 °F35.6 °F (2:16 pm)30.2 °F (12:36 am)
Humidity91.6 %93 % (4:56 am)87 % (12:36 am)
Barometer29.99 in30.15 in (11:36 pm)29.87 in (3:16 am)
Wind Speed1.6 mph5.8 mph (2:56 am)
Weather ElementAverage
Visibility3 mi
Wind DirectionE (93.9 °)

Weather ElementTotal
Precipitation0.44 in
Heating Degree Days29.4 (Base 65)
Averaged from 69 records on January 31, 2013
WEATHER CONDITIONS BREAKOUT
WIND DIRECTION BREAKOUT
WEATHER BY HOUR - JANUARY 31, 2013
[ °C ]   °F
Local TimeTemperatureDewpointHumidityBarometerVisibilityWind DirectionWind SpeedGust SpeedPrecipitationEventsConditions
12:36 AM33.8 °F30.2 °F87 %29.88 in2.5 miCalm0.01 inOvercast
12:56 AM33.8 °F30.2 °F87 %29.88 in2.5 miCalm0.01 inOvercast
1:16 AM33.8 °F30.2 °F87 %29.88 in5.0 miCalm0.01 inOvercast
1:36 AM33.8 °F30.2 °F87 %29.88 in3.0 miWSW (240°)3.5 mph0.01 inOvercast
1:56 AM33.8 °F30.2 °F87 %29.88 in5.0 miWest (260°)3.5 mph0.02 inMostly Cloudy
2:16 AM33.8 °F30.2 °F87 %29.88 in5.0 miCalm0.01 inOvercast
2:36 AM33.8 °F30.2 °F87 %29.88 in5.0 miWSW (240°)4.6 mph0.01 inOvercast
2:56 AM33.8 °F30.2 °F87 %29.88 in4.0 miWSW (250°)5.8 mph0.02 inOvercast
3:16 AM33.8 °F30.2 °F87 %29.87 in5.0 miWSW (240°)5.8 mph0.01 inOvercast
3:36 AM33.8 °F30.2 °F87 %29.87 in7.0 miWSW (250°)5.8 mph0.01 inOvercast
3:56 AM33.8 °F30.2 °F87 %29.87 in10.0 miCalm0.01 inOvercast
4:16 AM33.8 °F30.2 °F87 %29.87 in5.0 miWest (260°)3.5 mphOvercast
4:36 AM33.8 °F30.2 °F87 %29.88 in4.0 miSW (230°)4.6 mph0.01 inOvercast
4:56 AM33.8 °F32.0 °F93 %29.88 in8.0 miCalm0.01 inOvercast
5:16 AM33.8 °F30.2 °F87 %29.87 in5.0 miWSW (240°)3.5 mph0.01 inOvercast
5:36 AM35.6 °F33.8 °F93 %29.88 in3.0 miCalm0.01 inOvercast
5:56 AM33.8 °F32.0 °F93 %29.88 in5.0 miWSW (250°)3.5 mph0.02 inOvercast
6:16 AM33.8 °F32.0 °F93 %29.89 in5.0 miWest (260°)4.6 mphOvercast
6:36 AM33.8 °F32.0 °F93 %29.89 in5.0 miWSW (250°)4.6 mph0.01 inOvercast
6:56 AM33.8 °F32.0 °F93 %29.89 in5.0 miWSW (240°)3.5 mph0.02 inOvercast
7:16 AM33.8 °F32.0 °F93 %29.90 in5.0 miWSW (240°)5.8 mphOvercast
7:36 AM33.8 °F32.0 °F93 %29.91 in5.0 miCalm0.01 inOvercast
7:56 AM33.8 °F30.2 °F87 %29.91 in2.5 miWSW (240°)4.6 mph0.03 inOvercast
8:16 AM33.8 °F32.0 °F93 %29.91 in2.5 miWSW (250°)3.5 mph0.01 inOvercast
8:36 AM35.6 °F32.0 °F87 %29.92 in2.5 miSW (230°)3.5 mph0.02 inOvercast
8:56 AM33.8 °F32.0 °F93 %29.93 in3.0 miSW (220°)3.5 mph0.03 inOvercast
9:16 AM35.6 °F33.8 °F93 %29.93 in3.0 miWest (260°)4.6 mphOvercast
9:36 AM33.8 °F32.0 °F93 %29.94 in3.0 miSW (230°)4.6 mph0.01 inOvercast
9:56 AM33.8 °F32.0 °F93 %29.95 in7.0 miCalm0.02 inOvercast
10:16 AM35.6 °F33.8 °F93 %29.96 in7.0 miWSW (240°)3.5 mphOvercast
10:36 AM35.6 °F33.8 °F93 %29.96 in2.5 miCalmOvercast
10:56 AM35.6 °F33.8 °F93 %29.97 in2.5 miCalmOvercast
11:16 AM35.6 °F33.8 °F93 %29.97 in2.5 miWest (270°)3.5 mphOvercast
11:36 AM35.6 °F33.8 °F93 %29.98 in2.5 miCalmOvercast
11:56 AM35.6 °F33.8 °F93 %29.98 in2.0 miCalm0.03 inOvercast
12:16 PM35.6 °F33.8 °F93 %29.99 in2.0 miCalmOvercast
12:36 PM35.6 °F33.8 °F93 %29.99 in2.0 miCalmOvercast
12:56 PM35.6 °F33.8 °F93 %30.00 in1.5 miCalm0.01 inOvercast
1:16 PM35.6 °F33.8 °F93 %30.01 in1.5 miCalmOvercast
1:36 PM35.6 °F33.8 °F93 %30.01 in1.5 miWest (260°)3.5 mph0.01 inOvercast
1:56 PM35.6 °F33.8 °F93 %30.02 in2.5 miCalm0.02 inOvercast
2:16 PM37.4 °F35.6 °F93 %30.03 in2.5 miCalmOvercast
2:36 PM37.4 °F35.6 °F93 %30.03 in2.5 miCalm0.01 inOvercast
2:56 PM37.4 °F35.6 °F93 %30.04 in2.5 miCalm0.01 inOvercast
3:16 PM37.4 °F35.6 °F93 %30.04 in2.5 miCalmOvercast
3:36 PM35.6 °F33.8 °F93 %30.05 in2.5 miCalmOvercast
3:56 PM35.6 °F33.8 °F93 %30.05 in0.5 miCalmOvercast
4:16 PM37.4 °F35.6 °F93 %30.05 in0.5 miCalmOvercast
4:36 PM35.6 °F33.8 °F93 %30.05 in0.5 miCalmOvercast
5:16 PM37.4 °F35.6 °F93 %30.06 in0.5 miCalmOvercast
5:36 PM35.6 °F33.8 °F93 %30.06 in0.5 miCalmOvercast
6:16 PM35.6 °F33.8 °F93 %30.07 in1.0 miWest (260°)4.6 mphOvercast
6:36 PM33.8 °F32.0 °F93 %30.08 in1.0 miWest (260°)3.5 mphOvercast
6:56 PM35.6 °F33.8 °F93 %30.08 in0.5 miCalmOvercast
7:16 PM35.6 °F33.8 °F93 %30.08 in0.5 miCalmOvercast
7:36 PM35.6 °F33.8 °F93 %30.09 in0.5 miCalmOvercast
7:56 PM35.6 °F33.8 °F93 %30.09 in0.5 miCalmOvercast
8:16 PM33.8 °F32.0 °F93 %30.10 in2.0 miCalmOvercast
8:36 PM35.6 °F33.8 °F93 %30.10 in2.0 miNW (310°)3.5 mphOvercast
8:56 PM35.6 °F33.8 °F93 %30.11 in2.0 miCalmOvercast
9:16 PM35.6 °F33.8 °F93 %30.11 in2.0 miCalmOvercast
9:36 PM35.6 °F33.8 °F93 %30.11 in2.0 miCalmOvercast
9:56 PM35.6 °F33.8 °F93 %30.12 in5.0 miCalmOvercast
10:16 PM35.6 °F33.8 °F93 %30.12 in6.0 miCalmOvercast
10:36 PM35.6 °F33.8 °F93 %30.13 in1.2 miCalmOvercast
10:56 PM35.6 °F33.8 °F93 %30.14 in0.5 miCalmOvercast
11:16 PM35.6 °F33.8 °F93 %30.14 in1.0 miCalmOvercast
11:36 PM35.6 °F33.8 °F93 %30.15 in0.8 miCalmOvercast
11:56 PM35.6 °F33.8 °F93 %30.15 in0.5 miCalmOvercast
Hourly data recorded from PAPG, located miles away from Petersburg, Alaska







STORIES FROM OUR PARTNERS